Location: Unspecified
(0.0000°N, 0.0000°E)
Time: 17:53:08
(UTC+00:00)

STARLINK 1041 - Pass Details

Date: 15 January 2020
Orbit: 549 x 551 km, 53.0° (Epoch: 17 January)

Event Time Altitude Azimuth Distance (km) Brightness Sun altitude
Rises 20:00:42 0° 302° (WNW) 2,704 7.6 -25.8°
Reaches altitude 10° 20:03:20 10° 286° (WNW) 1,814 6.9 -26.4°
Maximum altitude 20:06:29 21° 236° (SW) 1,257 6.1 -27.1°
Drops below altitude 10° 20:09:39 10° 185° (S) 1,820 6.6 -27.9°
Sets 20:12:18 0° 169° (S) 2,716 7.3 -28.5°
